EW5961 Merida MX current weather conditions

sailwx.info

Wind from 019

Air temperature 21.1° C
Dewpoint 16.7° C

Last reported at 2020-Jan-21 06:01 UTC.
Time now 2020-Jan-21 06:34 UTC

Location: N 20°56' W 089°40'.
View on Google Maps.

See reports from other nearby stations

  
Tides and Currents Weather Stations Pressure Air Temp Water Temp Dewpoint Dewpoint Depression Visibility Wind Speed Wind Dir Waves Ship Positions
date/time (UTC)wind fromknots sea level pressurealtimeterstation pressurevisibilityair tempwater tempwave heightnotes
2020-Jan-21 06:01 019 21.1
2020-Jan-21 05:45 012 21.1
2020-Jan-21 05:30 360 21.7
2020-Jan-21 05:15 013 21.7
2020-Jan-21 05:00 019 21.7
2020-Jan-21 04:45 005 21.7
2020-Jan-21 04:30 046 21.7
2020-Jan-21 04:16 022 21.7
2020-Jan-21 04:01 014 21.7
2020-Jan-21 03:46 022 21.7
2020-Jan-21 03:32 015 21.7
2020-Jan-21 03:17 005 21.7
2020-Jan-21 03:01 040 22.2
2020-Jan-21 02:46 011 22.2
2020-Jan-21 02:31 009 22.2
2020-Jan-21 02:15 355 22.2
2020-Jan-21 02:01 015 22.2
2020-Jan-21 01:45 349 22.2
2020-Jan-21 01:30 020 22.2
2020-Jan-21 01:15 016 22.2
2020-Jan-21 01:00 360 22.2
2020-Jan-21 00:32 360 22.8
2020-Jan-21 00:17 355 22.8
2020-Jan-20 23:46 360 23.3
2020-Jan-20 23:32 009 23.3
2020-Jan-20 23:16 355 23.3
2020-Jan-20 23:01 031 23.9
2020-Jan-20 22:46 005 23.9
2020-Jan-20 22:32 360 23.9
2020-Jan-20 22:15 005 24.4
2020-Jan-20 22:02 009 24.4
2020-Jan-20 21:46 350 25.0
2020-Jan-20 21:30 005 25.0
2020-Jan-20 21:16 071 25.6
2020-Jan-20 21:00 346 26.1
2020-Jan-20 20:46 011 25.6
2020-Jan-20 20:32 005 25.6
2020-Jan-20 20:15 360 25.0
2020-Jan-20 20:00 348 25.6
2020-Jan-20 19:45 017 25.0
2020-Jan-20 19:30 017 25.0
2020-Jan-20 19:15 355 25.0
2020-Jan-20 19:02 339 24.4
2020-Jan-20 18:47 021 24.4
2020-Jan-20 18:32 014 23.3
2020-Jan-20 18:17 017 23.3
2020-Jan-20 18:01 015 23.9
2020-Jan-20 17:46 036 23.9
2020-Jan-20 17:32 005 24.4
2020-Jan-20 17:16 360 25.6
2020-Jan-20 17:01 290 25.6
2020-Jan-20 16:45 025 25.0
2020-Jan-20 16:30 005 23.9
2020-Jan-20 16:15 030 23.3
2020-Jan-20 16:00 349 22.8
2020-Jan-20 15:45 355 22.8
2020-Jan-20 15:30 010 22.8
2020-Jan-20 15:15 015 23.3
2020-Jan-20 15:00 355 23.3
2020-Jan-20 14:45 013 22.8
2020-Jan-20 14:30 014 22.8
2020-Jan-20 14:16 360 22.2
2020-Jan-20 13:46 009 22.2
2020-Jan-20 13:31 351 22.2
2020-Jan-20 13:16 019 22.2
2020-Jan-20 13:01 016 21.7
2020-Jan-20 12:47 011 21.7
2020-Jan-20 12:31 005 21.7
2020-Jan-20 12:00 347 21.7
2020-Jan-20 11:46 355 20.6
2020-Jan-20 11:31 315 20.6
2020-Jan-20 11:15 285 20.6
2020-Jan-20 11:01 241 20.6
2020-Jan-20 10:45 241 20.6
2020-Jan-20 10:30 241 20.6
2020-Jan-20 10:16 241 21.1
2020-Jan-20 10:01 248 21.1
2020-Jan-20 09:45 240 21.1
2020-Jan-20 09:30 235 21.1
2020-Jan-20 09:15 189 21.1
2020-Jan-20 09:00 348 21.7
2020-Jan-20 08:46 348 21.7
2020-Jan-20 08:31 348 21.7
2020-Jan-20 08:15 348 21.7
2020-Jan-20 08:03 348 21.7
2020-Jan-20 07:45 348 21.7
2020-Jan-20 07:30 348 21.7
2020-Jan-20 07:15 345 22.2
2020-Jan-20 07:00 317 22.2
2020-Jan-20 06:45 015 22.2
2020-Jan-20 06:30 037 22.2
2020-Jan-20 06:15 360 22.2
2020-Jan-20 05:47 030 22.8
2020-Jan-20 05:45 005 22.8
2020-Jan-20 05:31 015 22.8
2020-Jan-20 05:16 044 23.3
2020-Jan-20 05:03 005 23.3
2020-Jan-20 04:46 020 23.3
2020-Jan-20 04:30 019 23.3
2020-Jan-20 04:15 049 23.3
2020-Jan-20 04:00 060 23.3
2020-Jan-20 03:45 028 23.3
2020-Jan-20 03:30 058 23.3
2020-Jan-20 03:15 051 23.3
2020-Jan-20 03:00 057 23.3
2020-Jan-20 02:45 046 23.3
2020-Jan-20 02:31 034 23.3
2020-Jan-20 02:16 013 23.9
2020-Jan-20 02:00 016 23.9
2020-Jan-20 01:45 010 23.9
2020-Jan-20 01:30 360 23.9
2020-Jan-20 01:18 019 23.9
2020-Jan-20 01:15 005 23.9
2020-Jan-20 01:01 023 23.9
2020-Jan-20 00:47 005 23.9
2020-Jan-20 00:32 025 24.4
2020-Jan-20 00:19 355 24.4
2020-Jan-20 00:00 005 24.4
2020-Jan-19 23:45 036 25.0
2020-Jan-19 23:32 005 25.0
2020-Jan-19 23:17 049 25.6
2020-Jan-19 23:00 005 26.1
2020-Jan-19 22:30 348 27.2
2020-Jan-19 22:15 005 27.2
2020-Jan-19 22:01 355 27.2
2020-Jan-19 21:46 350 27.8
2020-Jan-19 21:31 024 27.8
2020-Jan-19 21:16 019 27.8
2020-Jan-19 21:02 360 27.8
2020-Jan-19 20:48 333 28.3
2020-Jan-19 20:32 012 28.9
2020-Jan-19 20:18 355 29.4
2020-Jan-19 20:02 005 29.4
2020-Jan-19 19:46 005 29.4
2020-Jan-19 19:32 360 30.0
2020-Jan-19 19:17 057 30.6
2020-Jan-19 19:02 078 30.6
2020-Jan-19 18:46 072 30.0
2020-Jan-19 18:32 005 30.0
2020-Jan-19 18:17 342 28.9
2020-Jan-19 18:02 355 29.4
2020-Jan-19 17:46 360 29.4
2020-Jan-19 17:31 081 28.3
2020-Jan-19 17:16 136 28.3
2020-Jan-19 17:01 029 27.8
2020-Jan-19 16:32 338 27.2
2020-Jan-19 16:16 126 26.7
2020-Jan-19 16:02 090 26.7
2020-Jan-19 15:46 076 26.1
2020-Jan-19 15:01 057 25.0
2020-Jan-19 14:45 049 24.4
2020-Jan-19 14:16 010 23.3
2020-Jan-19 14:01 034 22.2
2020-Jan-19 13:47 053 21.7
2020-Jan-19 13:32 052 21.1
2020-Jan-19 13:16 059 20.6
2020-Jan-19 12:46 050 20.6
2020-Jan-19 12:31 050 20.6
2020-Jan-19 12:17 074 20.6
2020-Jan-19 11:46 041 20.6
2020-Jan-19 11:31 049 20.6
2020-Jan-19 11:16 057 20.6
2020-Jan-19 10:46 060 20.6
2020-Jan-19 10:31 041 20.6
2020-Jan-19 10:16 355 20.6
2020-Jan-19 09:45 090 20.6
2020-Jan-19 09:31 076 21.1
2020-Jan-19 08:48 028 21.7
2020-Jan-19 08:33 034 21.7
2020-Jan-19 08:15 062 21.7
2020-Jan-19 07:45 052 22.2
2020-Jan-19 07:15 071 21.7
2020-Jan-19 07:00 107 21.7
2020-Jan-19 06:45 105 21.7
2020-Jan-19 06:15 097 22.2
2020-Jan-19 06:02 094 22.2